Location: Rounton
(54.4000°N, 1.3500°W)
Time: 23:02:27
(UTC+01:00)

Vanguard 1 - Pass Details

Date: 27 February 2024
Orbit: 653 x 3825 km, 34.2° (Epoch: 21 April)

Event Time Altitude Azimuth Distance (km) Brightness Sun altitude
Rises 22:20:49 0° 255° (WSW) 6,111 14.4 -38.2°
Reaches altitude 10° 22:24:42 10° 248° (WSW) 5,481 14.0 -38.6°
Enters shadow 22:37:55 38° 201° (SSW) 4,538 13.0 -39.7°
Maximum altitude 22:40:24 39° 188° (S) 4,605 - -39.9°
Drops below altitude 10° 23:00:24 10° 131° (SE) 6,882 - -41.3°
Sets 23:06:07 0° 124° (SE) 7,763 - -41.6°
